Aérodrome :
LOGIN :

S'inscrire | Disclaimer

   EN    FR    IT 

 










Légende :    VFR   VFR Marginal   IFR   IFR Intensif   IFR Très Intensif
Visi : 
Plafond : 
>= 8 km
>= 3000ft
5 à 8 km
1000 à 3000 ft
1500m à 5 km
500 à 1000 ft
800 à 1500m
200 à 500 ft
< 800m
< 200 ft
Symboles :   Orages  Brouillard  Fortes neiges  Fortes précipitations  Vent > 20 kt
SIGMETs :   Divers  Orages  Givrage  Turbulence  Onde Orograph.  Cendres Volcan.







- Altitude de l'aérodrome : 36 ft
- Code IATA : LTQ
- Voir les cartes d'approche


LFAT - Le Touquet

DERNIER METAR :
  • 172300Z AUTO 26004KT 230V300 CAVOK 16/13 Q1013

METARs EXPIRÉS :
  • 172230Z AUTO VRB02KT CAVOK 16/14 Q1013
  • 172200Z AUTO VRB02KT CAVOK 16/14 Q1013
  • 172130Z AUTO 18001KT CAVOK 15/13 Q1013
  • 172100Z AUTO VRB02KT CAVOK 16/14 Q1013
  • 172030Z AUTO 21001KT 8000 NSC 16/14 Q1013
  • 172000Z AUTO 23002KT CAVOK 17/14 Q1013

TAF TAF LFAT
Valide du 17 à 15h jusqu'au 18 à 00h UTC


171400Z 1715/1724 30010KT CAVOK
BECMG 1718/1721 24005KT
ATIS : +33 3 21 06 62 84
Pas de NOTAMs connus pour ce terrain.



MET'MAP, la Météo Aéronautique d'un coup d'oeil ! - Copyright ORBIFLY Décembre 2007 - Disclaimer

ORBIFLY MET'MAP TEAM :

Programmation & Développement : Alexandra Zaïnal
Conception & Développement : Baudouin d'Aumeries
Co-Programmation & Développement : Marc-Olivier Méhu
Soutien technique & logistique : Manuel Goepfert

Contact : metmap@orbifly.com




SOURCES & CREDITS :

   NOAA